Погода в Урлядинском

Россия / Челябинская область     54°01′35″N   59°25′13″E
темп.,
°C
ветер,
м/с
пор.,
м/с
влажн.,
%
обл.,
%
осадки,
мм/ч
давл.,
гПа
погр.,
м
20 июня, вс
вс2023:00+16з6147195 0.0 1016534
02:00+16з61482100 0.0 1014475
05:00+16зсз615855 0.0 1013499
08:00+20зсз713745 0.0 1013940
11:00+22сз812605 0.0 10131585
14:00+24сз914420 0.0 10132341
17:00+23ссз813420 0.0 10142149
20:00+17ссз612490 0.0 1016633
21 июня, пн
пн2123:00+14ссз613460 0.0 1019629
02:00+11ссз410490 0.0 1020232
05:00+9сз38590 0.0 1022154
08:00+13ссз59480 0.0 1022898
11:00+17с69350 0.0 10231514
14:00+20с68315 0.0 10221827
17:00+21с473310 0.0 10221863
20:00+18с225634 0.0 102126
22 июня, вт
вт2223:00+14зюз115897 0.0 102211
02:00+14зюз236463 0.1 102151
05:00+13з347765 0.1 102064
08:00+18зсз466966 0.0 1020263
11:00+24ссз4653100 0.0 10191186
14:00+27сз584397 0.0 10182536
17:00+25зсз365766 0.0 1017370
20:00+23зсз61169100 0.2 1018392
23 июня, ср
ср2323:00+18зсз41084100 0.6 1018154
02:00+18зсз488145 0.1 1017127
05:00+17зсз410840 0.1 1017163
08:00+22сз5116819 0.0 1016431
11:00+25ссв576098 0.9 10171196
14:00+25св355995 1.0 10161189
17:00+18в129661 13.8 101788
20:00+17в2397100 2.9 1017229
24 июня, чт
чт2423:00+14в4598100 4.2 1019288
02:00+14вюв2397100 0.1 1018272
05:00+14юв2296100 0.2 1018221
08:00+14ююв1194100 0.0 1018286
11:00+17ю2187100 0.1 1018500
14:00+21ю227274 0.0 1017866
17:00+23ююз236549 0.1 10151005
20:00+22юв117744 0.8 101414